STARLINK-36654, 67838

Orbit data source: Space-Track

STARLINK-36654, 67838 is a payload satellite owned by SpaceX/Seattle (US) in LEO that was launched on Mon, 16 Feb 2026 UTC via an FALCON 9 launch vehicle from the Air Force Eastern Test Range (AFETR). Payload-class satellites include a variety of spacecraft equipped with specific instruments for various scientific and technological missions. These include communications satellites like Starlink; space stations such as the ISS; scientific satellites like the Hubble; Earth observation satellites from companies like Planet Labs, Umbra, and HawkEye 360; GPS; miniature CubeSats for education and research; and military/defense satellites.

Loading next visibility...
Identifier
67838, 2026-033T
Orbit
LEO
Country
Flag of USUS
Related business
Manufacturer
SpaceX/Seattle
Mission
Operational Commercial Communications
Bus & Motor
STARLINK V2MO, Unknown motor
Mass
575 kg wet, ~530 kg dry
Launch date (UTC)
2026-02-16 (4 months ago)
Launch vehicle
FALCON 9
Launch site
Air Force Eastern Test Range (AFETR)
Object type
Payload
Rocket body
Debris
Shape & HBR
Box + 2 Pan, 17.7 m
Radar Cross Section
36.964 m², Large (>1 m²)

Expand to show TLE details & history
Last TLE update: 15 hours ago

TLE from 15 hours ago
0 STARLINK-36654
1 67838U 26033T   26171.35354697  .00006703  00000-0  25283-3 0  9994
2 67838  43.0020  47.3872 0000769 316.4178  43.6613 15.27586194 20379
Epoch: 2026-06-20T08:29Z
TLE epoch observation values (Epoch: 2026-06-20T08:29:06.458Z)
Latitude
Longitude
11.54091°
Altitude
482.425 km
Speed
7.626 km/s
True Right ascension
03h 09m 32s
True Declination
0° 00' 00"
Sunlit
Object was in daylight at epoch
Visualization orbit readout
Latitude
Unknown
Longitude
Unknown
Altitude
Unknown
Speed
Unknown
Apparent Right ascension
Unknown
Apparent Declination
Unknown
Sunlit
N/A
Visualization observer readout
Local Sidereal Time
10:18:55
Azimuth
Unknown
Elevation
Unknown
Doppler factor
Unknown
Orbital elements
Apogee altitude
485.503 km
Perigee altitude
484.448 km
Semi-major axis
6,863.112 km
Eccentricity
0.00008
Inclination
43.002°
RAAN
47.3872°
Arg. of periapsis
316.4178°
True anomaly
43.66738°
Mean anomaly
43.6613°
Eccentric anomaly
43.66434°
Mean motion
3.81735 °/min
Orbital period
94.31 mins
BSTAR
0.00025283
Loading maneuver chart data...
Computing Atmospheric mass density...
Loading historical data...
Loading historical data...
Loading historical data...
Loading historical data...
Loading historical data...
Loading historical data...
Loading historical data...

Documentation

Showing up to 5 results
|